Flag for Brazil Weather past 2 weeks in Florianópolis, Santa Catarina, Brazil

Now
77 °F

Broken clouds.


Feels Like: 79 °F
Forecast: 75 / 87 °F
Wind: 2 mph from North

Location: Florianopolis Aeroporto

Current Time: Dec 21, 2014 at 10:09:33 AM

Latest Report: Dec 21, 2014 at 9:00 AM


Visibility: N/A

Pressure: 29.71 "Hg

Humidity: 79%

Dew point: 70 °F

Location of FlorianópolisLocation

Historic Weather in Florianópolis — Graph

°F

Florianópolis temperature yesterday

Maximum temperature yesterday: 90 °F (at 2:00 PM)
Minimum temperature yesterday: 73 °F (at 12:00 AM)
Average temperature yesterday: 79 °F

Past Weeks' High & Low Weather Summary

 TemperatureHumidityPressure
High90 °F (Dec 8, 3:00 PM)94% (Dec 12, 7:00 AM)30.09 "Hg (Dec 12, 7:00 AM)
Low68 °F (Dec 15, 6:00 AM)22% (Dec 13, 6:00 PM)29.59 "Hg (Dec 20, 7:00 PM)
Average77 °F74%29.88 "Hg
* Reported Dec 6 9:00 AM — Dec 21 9:00 AM, Florianópolis, Weather by CustomWeather, © 2014

Note: Actual official high and low records may vary slightly from our data, if they occured in-between our weather recording intervals... More about our weather records

Advertising

Florianópolis weather history for previous 24 hours

 ConditionsComfort  
Time TempWeatherWind HumidityBarometerVisibility
9:00 AM
Dec 21
77 °FBroken clouds.2 mph79%29.71 "HgN/A
8:00 AM75 °FPartly sunny.2 mph78%29.71 "HgN/A
7:00 AM73 °FBroken clouds.6 mph89%29.71 "HgN/A
6:00 AM73 °FPassing clouds.6 mph89%29.71 "HgN/A
5:00 AM73 °FThundershowers. Partly cloudy.8 mph89%N/AN/A
4:00 AM75 °FThunderstorms. Passing clouds.10 mph83%29.71 "HgN/A
3:00 AM77 °FThunderstorms. Passing clouds.3 mph89%29.68 "HgN/A
2:00 AM79 °FThunderstorms. Passing clouds.7 mph84%29.68 "HgN/A
1:00 AM79 °FPassing clouds.8 mph84%29.71 "HgN/A
12:00 AM79 °FPassing clouds.15 mph89%29.71 "HgN/A
11:00 PM
Dec 20
79 °FPassing clouds.10 mph84%29.71 "HgN/A
10:00 PM79 °FPassing clouds.5 mph84%29.68 "HgN/A
9:00 PM79 °FPassing clouds.9 mph84%29.65 "HgN/A
8:00 PM81 °FPassing clouds.14 mph79%29.59 "HgN/A
7:00 PM82 °FPassing clouds.10 mph74%29.59 "HgN/A
6:00 PM82 °FScattered clouds.13 mph74%29.62 "HgN/A
5:00 PM82 °FPartly sunny.15 mph70%29.62 "HgN/A
4:00 PM86 °FPassing clouds.14 mph62%29.65 "HgN/A
3:00 PM90 °FPassing clouds.13 mph55%29.68 "HgN/A
2:00 PM90 °FPassing clouds.13 mph55%29.71 "HgN/A
1:00 PM88 °FPassing clouds.14 mph55%29.71 "HgN/A
12:00 PM86 °FPassing clouds.15 mph59%29.74 "HgN/A
11:00 AM82 °FPassing clouds.15 mph66%29.74 "HgN/A
10:00 AM81 °FPassing clouds.13 mph70%29.77 "HgN/A
Weather by CustomWeather, © 2014

See weather overviewHow to use our weather pages